Home   Weather   St. Catharines   Past weeks
Flag for Canada

Past Weather in St. Catharines, Ontario, Canada — Yesterday and Last 2 Weeks

Now
57 °F

Cool.


Feels Like: 57 °F
Forecast: 69 / 53 °F
Wind: 5 mph from Northeast

Location: Port Colborne Airport

Current Time: Jun 17, 2019 at 1:01:22 am

Latest Report: Jun 17, 2019 at 12:00 am


Visibility: N/A

Pressure: 29.96 "Hg

Humidity: 86%

Dew Point: 53 °F

Location of St. CatharinesLocation

Past Weather in St. Catharines — Graph

°F

St. Catharines Temperature Yesterday

Maximum temperature yesterday: 62 °F (at 5:00 pm)
Minimum temperature yesterday: 54 °F (at 10:00 am)
Average temperature yesterday: 58 °F

High & Low Weather Summary for the Past Weeks

 TemperatureHumidityPressure
High79 °F (Jun 9, 6:00 pm)97% (Jun 7, 3:00 am)30.19 "Hg (Jun 7, 3:00 am)
Low44 °F (Jun 3, 7:00 am)27% (Jun 8, 4:00 pm)29.62 "Hg (Jun 13, 3:00 pm)
Average59 °F75%29.94 "Hg
* Reported Jun 1 11:00 pm — Jun 16 11:00 pm, St. Catharines. Weather by CustomWeather, © 2019

Note: Actual official high and low records may vary slightly from our data, if they occured in-between our weather recording intervals... More about our weather records

Advertising

St. Catharines Weather History for the Previous 24 Hours

Scroll right to see more
 ConditionsComfort  
Time TempWeatherWind HumidityBarometerVisibility
11:00 pm
Sun, Jun 16
58 °FCool.6 mph87%29.94 "HgN/A
10:00 pm60 °FCool.6 mph76%29.93 "HgN/A
9:00 pm62 °FCool.2 mph74%29.92 "HgN/A
8:00 pm62 °FCool.7 mph71%29.90 "HgN/A
7:00 pm61 °FCool.3 mph78%29.91 "HgN/A
6:00 pm60 °FCool.6 mph82%29.89 "HgN/A
5:00 pm62 °FCool.9 mph65%29.89 "HgN/A
4:00 pm60 °FCool.7 mph82%29.88 "HgN/A
3:00 pm58 °FCool.7 mph85%29.89 "HgN/A
2:00 pm59 °FCool.6 mph81%29.89 "HgN/A
1:00 pm58 °FCool.8 mph81%29.87 "HgN/A
12:00 pm57 °FCool.12 mph81%29.86 "HgN/A
11:00 am55 °FCool.13 mph86%29.86 "HgN/A
10:00 am54 °FCool.17 mph94%29.85 "HgN/A
9:00 am55 °FCool.16 mph91%29.84 "HgN/A
8:00 am55 °FCool.17 mph92%29.82 "HgN/A
7:00 am56 °FCool.14 mph94%29.82 "HgN/A
6:00 am56 °FCool.14 mph94%29.83 "HgN/A
5:00 am58 °FCool.13 mph97%29.83 "HgN/A
4:00 am58 °FCool.12 mph96%29.83 "HgN/A
3:00 am60 °FCool.9 mph97%29.85 "HgN/A
2:00 am61 °FCool.9 mph96%29.85 "HgN/A
1:00 am59 °FCool.8 mph96%29.87 "HgN/A
Weather by CustomWeather, © 2019

See weather overview